sat.trackr.live / text

‹ back to catalog

STARLINK-2418

NORAD 48097 · 2021-027F

PAYLOAD ACTIVE UNKNOWN

§ Identity

Operator
Country
US
Launch date
2021-04-07
Launch site
AFETR
Launch vehicle
Mass (kg)
RCS (m²)

Purposes: comms

External: N2YO · Heavens-Above · Gunter

§ Orbital elements

Epoch: 2026-09-08T15:43:31.063296Z

Period
93.99 min
Inclination
53.1578°
Eccentricity
0.0001473
Mean motion
15.32031316 rev/d
Perigee alt
468.7 km
Apogee alt
470.8 km
Semi-major
6,847.9 km
B*
1.0784e-3
RAAN
21.4417°
Arg perigee
35.1431°
Mean anomaly
324.9668°
Rev number
30,071

§ Raw data

STARLINK-24181 48097U 21027F   26251.65522064  .00033599  00000+0  10784-2 0  99962 48097  53.1578  21.4417 0001473  35.1431 324.9668 15.32031316300714

JSON: /api/v1/satellites/48097 · /tle

For live sub-satellite position, see the globe view (requires WebGL).

§ Visibility from observer

Set your observer location to see the next 7 days of passes ≥ 10°. The values pass through the URL so the page stays shareable.

No JS? Fill the form by hand. The geolocation button needs JavaScript.